COSMOS 2251 DEB

Satellite information

Favourite Embed

Satellite Type and Status

DEBRISIN ORBIT

Key statistics

Satellite COSMOS 2251 DEB at a glance.

Uptime

11771

Days in orbit

Revolutions

≈ 14.2

Per day

Orbit

LEO

Low Earth Orbit

Inclination

74.1

Latest

Satellite identification and parameters

Extended collection of information and parameters for COSMOS 2251 DEB.

Object identification

Identified? True

Debris? True

Object name: COSMOS 2251 DEB

International designator: 1993-036AHB

Object number (NORAD): 35038

Object ID (CCSDS): 35038

Country: COMMONWEALTH OF INDEPENDENT STATES (CIS)

Current information (Y/N): Y

RCS size: SMALL

Orbital parameters

Period: 101.1 minutes

Inclination: 74.1058 deg

SMA: 7188.898 km

Apoapsis: 895.41 km

Periapsis: 726.117 km

RAAN: 217.3542 deg

Eccentricy: 0.01177458

Argument of periapsis: 230.3735 deg

Mean anomaly: 289.3505 deg

Mean motion: 14.24325497 rev/day

Mean motion (dot): 0.00002138 rev/day2

B* drag term: 0.00087129838 1/REarth

Two-line elements (TLE)

Creation date: Sept. 7, 2025, 3:09 a.m.

Reference frame: TEME

Reference center: EARTH

Epoch: Sept. 6, 2025, 9:05 a.m. UTC

TLE line 0: 0 COSMOS 2251 DEB

TLE line 1: 1 35038U 93036AHB 25249.37860463 .00002138 00000-0 87130-3 0 9995

TLE line 2: 2 35038 74.1058 217.3542 0117746 230.3735 289.3505 14.24325497841825

Live tracking on map

Real-time ground track for satellite COSMOS 2251 DEB.

In-orbit conjunctions

A list of the most updated potential collisions computed for object COSMOS 2251 DEB.

Target Orbit TCA Probability of collision Miss distance Type
FENGYUN 1C DEB SSO 2025-07-12 05:04:52 0.0002094126 218.0 (m) DEBRIS
COSMOS 2251 DEB LEO 2025-02-04 18:58:37 0.000109891 278.0 (m) DEBRIS
CZ-6A DEB LEO 2024-10-22 03:25:55 0.000119462 567.0 (m) DEBRIS
CZ-6A DEB SSO 2024-09-25 12:17:20 0.0001195894 948.0 (m) DEBRIS

Associated space launch

Military communications satellite. Destroyed in a collision with Iridium 33.

COSMOS 2251 DEB was lifted into orbit during the mission ‘Kosmos-3M | Strela-2M 51’, on board a Kosmos-3M space rocket.

The launch took place on June 16, 1993, 4:17 a.m. from 132/1 (132L).

For more information about the launch, click the button.

Launch to space Kosmos-3M | Strela-2M 51
Kosmos-3M | Strela-2M 51

Agency: N/A

Status: Launch Successful

Launch date: June 16, 1993, 4:17 a.m. UTC

Rocket: Kosmos-3M

Launch pad: 132/1 (132L)

Location: Plesetsk Cosmodrome, Russian Federation

...

Latest news about this satellite

There are no fresh news available about this satellite. Check back as we update our databases every day.


Newsletter sign-up

Weekly statistics, charts and insights to help you stay on top of the space industry.